Location: Davidschlag
(48.4333°N, 14.2833°E)
Time: 04:54:48
(UTC+00:00)

Cosmos 1812 - Pass Details

Date: 27 February 2020
Orbit: 516 x 522 km, 82.5° (Epoch: 09 April)

Event Time Altitude Azimuth Distance (km) Brightness Sun altitude
Rises 17:16:06 0° 345° (NNW) 2,666 6.4 -6.3°
Reaches altitude 10° 17:18:17 10° 340° (NNW) 1,772 5.6 -6.7°
Maximum altitude 17:22:03 49° 266° (W) 683 3.9 -7.3°
Drops below altitude 10° 17:25:46 10° 191° (S) 1,755 5.6 -7.9°
Sets 17:27:56 0° 185° (S) 2,638 6.4 -8.3°
